Zurück zum Katalog

MANDRAKE 2 ABLE

AktivWissenschaftPO
NORAD 48907·PAYLOAD·🇺🇸 United States

Gestartet Jun 30, 2021 von Cape Canaveral Space Force Station

Loading…

Nächste Überflüge (nächste 24 Stunden)

TLE

AktuellSource: Space-Track

Epoche: Sep 14, 2026, 00:13 UTC

1 48907U 21059AE  26257.00960365  .00020774  00000-0  27406-3 0  9998
2 48907  97.6989  93.8024 0005044  38.9268 321.2349 15.58421242290945

Verfolge MANDRAKE 2 ABLE in Echtzeit mit AllMySat

Download on the App Store